Powrót do katalogu

STARLINK-2373

AktywnyŁącznośćVLEO
NORAD 47796·PAYLOAD·🇺🇸 United States

Wystrzelony Mar 11, 2021 z Cape Canaveral Space Force Station

Loading…

Następne Przeloty (najbliższe 24 godziny)

TLE

ŚwieżeSource: CelesTrak SupGP

Epoka: Sep 14, 2026, 21:48 UTC

1 47796C 21018K   26257.90881944  .00080694  00000+0  18594-2 0  2572
2 47796  53.1532  73.9543 0001786 128.8219 174.3588 15.41976595    17

Śledź STARLINK-2373 w czasie rzeczywistym z AllMySat

Download on the App Store